Hourly Data Report for July 26, 2009

PITT MEADOWS CS
BRITISH COLUMBIA

49°12'29.964" N
122°41'24.076" W
5.00 m
1106178
71775
WMM

Download Data

Hourly Data (July 2009)
Hourly Data Report for July 26, 2009
TIME
LST
Temp Definition
°C
Dew Point Definition
°C
Rel Hum Definition
%
Precip. Amount Definition
mm

Wind Dir Definition
10's deg

Wind Spd Definition
km/h
Visibility Definition
km
Stn Press Definition
kPa
Hmdx Definition


Wind Chill Definition


Weather Definition


00:00 19.8 19.2 96   9 6   101.77     LegendNANA
01:00 19.8 19.2 96   23 4   101.74     LegendNANA
02:00 20.0 19.1 95     0   101.74 27   LegendNANA
03:00 19.8 19.1 96   18 7   101.75     LegendNANA
04:00 19.5 19.0 97   23 4   101.77     LegendNANA
05:00 19.6 19.2 98   9 4   101.89     LegendNANA
06:00 19.9 19.3 96     0   101.92     LegendNANA
07:00 20.8 19.4 92   12 6   101.98 28   LegendNANA
08:00 22.3 19.5 84   17 4   101.98 29   LegendNANA
09:00 21.2 18.8 86   19 6   102.00 28   LegendNANA
10:00 21.7 19.1 85   19 6   102.00 29   LegendNANA
11:00 24.1 19.6 76   14 6   102.00 31   LegendNANA
12:00 25.8 19.8 70   21 6   101.96 33   LegendNANA
13:00 26.3 18.7 63   20 4   101.90 33   LegendNANA
14:00 27.3 18.8 60   14 2   101.83 34   LegendNANA
15:00 28.9 19.4 57   31 2   101.76 36   LegendNANA
16:00 29.6 20.0 56   24 6   101.69 37   LegendNANA
17:00 28.8 20.0 59   17 7   101.67 36   LegendNANA
18:00 27.6 19.2 60   18 9   101.65 35   LegendNANA
19:00 26.5 18.3 61   19 7   101.68 33   LegendNANA
20:00 25.0 18.2 66   19 6   101.71 31   LegendNANA
21:00 22.8 18.5 77     0   101.75 29   LegendNANA
22:00 21.5 18.8 85     0   101.77 28   LegendNANA
23:00 20.6 18.5 88   12 4   101.80 27   LegendNANA

Notes on Data Quality.

Legend

  • E = Estimated
  • M = Missing
  • NA = Not Available*
  • [empty] = Indicates an unobserved value
Date modified: